[[{"header":{"parameterUnit":"m.s-1","parameterCategory":1,"la1":30.2991,"la2":30.254,"lo1":-89.0895,"lo2":-89.0444,"dy":0.0017,"dx":0.0017,"nx":28,"ny":28,"refTime":"2025-03-07T03:00:00:Z","depth":0,"parameterNumber":2,"parameterNumberName":"U-component_of_WINDS"},"data":[0,0,0,0,0,0,0,0,0,0,0,0,0,0,0,0,0,0,0,0,0,0,0,0,0,0,0,0,0,0,0,0,0,0,0,0,0,0,0,0,0,0,0,0,0,0,0,0,0,0,0,0,0,0,0,0,0,0,-1.5386,-1.5386,0,-1.5371,-1.5371,-1.5371,-1.5343,-1.5342,-1.5342,-1.5341,-1.5326,-1.5326,-1.5326,0,0,0,0,0,0,0,0,0,0,0,0,0,-1.539,-1.539,-1.5386,-1.5386,-1.5386,-1.5371,-1.5371,-1.5371,-1.5343,-1.5342,-1.5342,-1.5341,-1.5326,-1.5326,-1.5326,0,0,0,0,0,0,0,0,0,0,0,0,0,-1.5383,-1.539,-1.5386,-1.537,-1.5368,-1.5371,-1.5371,-1.5371,-1.5343,-1.5342,-1.5341,-1.5341,-1.5326,-1.5326,-1.5326,-1.5344,0,0,-1.5327,-1.5327,0,0,0,0,0,0,0,0,-1.5384,-1.5383,-1.5373,-1.5371,-1.5369,-1.5358,-1.5367,-1.5362,-1.5343,-1.5353,-1.5341,-1.534,-1.5337,-1.5337,-1.5336,-1.5343,-1.5342,-1.5327,-1.5327,-1.5327,-1.5327,0,0,0,0,0,0,0,-1.5384,-1.5383,-1.538,-1.5373,-1.5371,-1.5363,-1.5362,-1.5366,-1.535,-1.5352,-1.535,-1.5348,-1.5336,-1.5335,-1.5335,-1.5342,-1.5327,-1.5327,-1.5327,-1.5327,-1.5361,-1.5362,0,0,0,0,0,0,-1.5387,-1.5384,-1.5381,-1.538,-1.5375,-1.5364,-1.5362,-1.5363,-1.535,-1.5347,-1.5349,-1.5347,-1.5336,-1.5335,-1.5334,-1.5352,-1.5327,-1.5327,-1.5327,-1.536,-1.5361,-1.5362,0,0,0,0,0,0,-1.5387,-1.5387,-1.5381,-1.5381,-1.538,-1.5365,-1.5366,-1.5363,-1.5362,-1.5348,-1.5345,-1.5351,-1.5335,-1.5334,-1.5341,-1.5351,-1.5327,-1.5327,-1.536,-1.5361,-1.5362,-1.5389,0,0,0,0,0,0,-1.5387,-1.5387,-1.5394,-1.5382,-1.538,-1.5389,-1.5366,-1.5363,-1.5362,-1.5359,-1.5349,-1.5346,-1.5334,-1.5341,-1.5341,-1.5351,-1.5327,-1.5358,-1.536,-1.5362,-1.5387,-1.5391,-1.5395,0,0,0,0,0,-1.5388,-1.5402,-1.5394,-1.5394,-1.5388,-1.5389,-1.5388,-1.5374,-1.5363,-1.5369,-1.536,-1.5346,-1.5351,-1.5342,-1.5342,-1.5352,-1.5358,-1.536,-1.5361,-1.5386,-1.5391,-1.5395,0,0,0,0,0,0,-1.5416,-1.54,-1.5391,-1.5402,-1.5397,-1.5384,-1.5392,-1.538,-1.5378,-1.5375,-1.5358,-1.5356,-1.5365,-1.536,-1.535,-1.5368,-1.5352,-1.5354,-1.537,-1.5375,-1.5379,-1.5379,-1.5328,0,0,0,0,0,-1.5424,-1.5426,-1.5412,-1.5423,-1.5421,-1.5407,-1.5407,-1.5397,-1.5391,-1.5388,-1.538,-1.5374,-1.5374,-1.5375,-1.5374,-1.5387,-1.5384,-1.5394,-1.5398,-1.5401,-1.5402,-1.5407,-1.5411,-1.5368,-1.5368,-1.5368,0,0,-1.5439,-1.5431,-1.5433,-1.5429,-1.5424,-1.5426,-1.5405,-1.5409,-1.541,-1.5389,-1.5394,-1.5388,-1.5381,-1.5391,-1.5395,-1.5386,-1.5413,-1.5403,-1.5406,-1.5405,-1.5409,-1.5414,-1.5417,-1.537,-1.5369,-1.5369,0,0,-1.5468,-1.5463,-1.5471,-1.5466,-1.5458,-1.5449,-1.5451,-1.544,-1.5434,-1.544,-1.5423,-1.5425,-1.5426,-1.5421,-1.5418,-1.5446,-1.5432,-1.5446,-1.5464,-1.547,-1.5473,-1.5476,-1.5484,-1.5487,-1.5448,-1.5448,-1.5448,0,-1.5488,-1.5491,-1.5477,-1.5481,-1.5479,-1.546,-1.5467,-1.5463,-1.5456,-1.5455,-1.5446,-1.5446,-1.544,-1.5447,-1.5454,-1.5453,-1.5454,-1.5446,-1.5474,-1.5476,-1.5479,-1.5486,-1.549,-1.5449,-1.5449,-1.5449,-1.5449,0,-1.5515,-1.5518,-1.5525,-1.5518,-1.5517,-1.5523,-1.5509,-1.551,-1.55,-1.5491,-1.5497,-1.5489,-1.5486,-1.5487,-1.5477,-1.5493,-1.5488,-1.5477,-1.546,-1.5485,-1.5491,-1.5494,-1.5452,-1.5451,-1.5451,-1.545,0,0,-1.5561,-1.5546,-1.5548,-1.5544,-1.5534,-1.5536,-1.5541,-1.5538,-1.5538,-1.5534,-1.5537,-1.5538,-1.5527,-1.5524,-1.5514,-1.5519,-1.5539,-1.5507,-1.5506,-1.5512,-1.5554,-1.5561,-1.5565,-1.5531,-1.5532,-1.5532,-1.5554,0,-1.5586,-1.5594,-1.5581,-1.5591,-1.5592,-1.5574,-1.5578,-1.5573,-1.5565,-1.5565,-1.5556,-1.5556,-1.5543,-1.5541,-1.5545,-1.5536,-1.5547,-1.5534,-1.5533,-1.5533,-1.5533,-1.5569,-1.5576,-1.5597,-1.5557,-1.5557,-1.5557,0,-1.5617,-1.5614,-1.5624,-1.5613,-1.5613,-1.5617,-1.5612,-1.5612,-1.5605,-1.5599,-1.5596,-1.5584,-1.5588,-1.5573,-1.5577,-1.5569,-1.5568,-1.5563,-1.5564,-1.5562,-1.5545,-1.5566,-1.5604,-1.5607,-1.5562,-1.5561,-1.5561,0,-1.5647,-1.5645,-1.5651,-1.5648,-1.5636,-1.5639,-1.5634,-1.5626,-1.5624,-1.5621,-1.5619,-1.5616,-1.5614,-1.5612,-1.5599,-1.559,-1.5604,-1.5589,-1.5598,-1.5598,-1.5601,-1.56,-1.5637,-1.5603,-1.5603,-1.5603,-1.5603,0,-1.5676,-1.5682,-1.5664,-1.5667,-1.5674,-1.5659,-1.5666,-1.5659,-1.5652,-1.5653,-1.5638,-1.564,-1.5623,-1.5623,-1.5613,-1.5617,-1.5617,-1.5611,-1.5608,-1.5612,-1.5612,-1.5609,-1.5607,-1.5604,-1.5603,-1.5603,-1.5603,0,-1.571,-1.5698,-1.5702,-1.569,-1.5687,-1.5692,-1.5681,-1.5684,-1.5675,-1.5677,-1.5676,-1.5663,-1.5661,-1.5649,-1.5645,-1.5638,-1.5645,-1.5641,-1.5648,-1.5645,-1.5654,-1.5653,-1.569,-1.5693,-1.5658,-1.5659,-1.5659,0,-1.5728,-1.5732,-1.572,-1.572,-1.5716,-1.5716,-1.5714,-1.57,-1.5698,-1.569,-1.5693,-1.5691,-1.5688,-1.5686,-1.5676,-1.5673,-1.5666,-1.568,-1.5666,-1.5669,-1.5665,-1.5664,-1.5663,-1.5682,-1.5682,-1.5683,-1.5683,0,-1.5761,-1.5755,-1.5753,-1.5749,-1.5747,-1.5743,-1.5739,-1.5739,-1.5724,-1.5723,-1.5721,-1.5719,-1.5715,-1.5712,-1.5707,-1.5701,-1.5689,-1.5688,-1.5689,-1.5692,-1.5695,-1.5692,-1.5654,-1.5687,-1.5686,-1.5686,-1.5686,-1.5686,-1.5786,-1.5789,-1.5781,-1.5779,-1.5774,-1.577,-1.5771,-1.5762,-1.5761,-1.5756,-1.5748,-1.5747,-1.5739,-1.5731,-1.5726,-1.5725,-1.5718,-1.5721,-1.5721,-1.5722,-1.5723,-1.5697,-1.5724,-1.5724,-1.5724,-1.5724,-1.5724,0,-1.5817,-1.5811,-1.581,-1.5803,-1.5802,-1.5791,-1.5785,-1.5784,-1.5784,-1.5778,-1.5775,-1.5773,-1.577,-1.5759,-1.5755,-1.5756,-1.5751,-1.5756,-1.5754,-1.5753,-1.573,-1.5728,-1.576,-1.576,-1.576,-1.576,-1.576,-1.576,-1.5833,-1.5836,-1.5829,-1.583,-1.5824,-1.5823,-1.582,-1.5816,-1.5811,-1.5809,-1.5806,-1.5799,-1.5791,-1.5786,-1.5783,-1.578,-1.5778,-1.5785,-1.578,-1.5758,-1.5755,-1.5751,-1.575,-1.5785,-1.5785,-1.5802,-1.5802,-1.5802]},{"header":{"parameterUnit":"m.s-1","parameterCategory":1,"la1":30.2991,"la2":30.254,"lo1":-89.0895,"lo2":-89.0444,"dy":0.0017,"dx":0.0017,"nx":28,"ny":28,"refTime":"2025-03-07T03:00:00:Z","depth":0,"parameterNumber":3,"parameterNumberName":"V-component_of_WINDS"},"data":[0,0,0,0,0,0,0,0,0,0,0,0,0,0,0,0,0,0,0,0,0,0,0,0,0,0,0,0,0,0,0,0,0,0,0,0,0,0,0,0,0,0,0,0,0,0,0,0,0,0,0,0,0,0,0,0,0,0,3.0959,3.0959,0,3.096,3.096,3.096,3.1034,3.1036,3.1038,3.1039,3.1038,3.1036,3.1034,0,0,0,0,0,0,0,0,0,0,0,0,0,3.102,3.1019,3.0959,3.0959,3.0959,3.096,3.096,3.096,3.1033,3.1036,3.1038,3.104,3.1038,3.1036,3.1034,0,0,0,0,0,0,0,0,0,0,0,0,0,3.1005,3.1018,3.0959,3.0996,3.0999,3.096,3.096,3.096,3.1033,3.1036,3.1039,3.1041,3.1039,3.1036,3.1034,3.0959,0,0,3.1025,3.1024,0,0,0,0,0,0,0,0,3.1006,3.1002,3.099,3.0993,3.0997,3.1,3.0981,3.096,3.1032,3.102,3.1039,3.1043,3.1023,3.1021,3.1015,3.0959,3.0959,3.1025,3.1023,3.1022,3.1021,0,0,0,0,0,0,0,3.1007,3.1003,3.096,3.099,3.0994,3.1012,3.1013,3.0978,3.1005,3.1021,3.1027,3.1026,3.1025,3.1018,3.1016,3.0959,3.1025,3.1023,3.1021,3.102,3.0846,3.0843,0,0,0,0,0,0,3.1003,3.1003,3.096,3.096,3.1009,3.1009,3.101,3.0996,3.1006,3.101,3.1023,3.1029,3.1021,3.1019,3.1016,3.0932,3.1022,3.1019,3.1018,3.0848,3.0845,3.0842,0,0,0,0,0,0,3.1004,3.0998,3.0959,3.0983,3.0979,3.1005,3.0988,3.0994,3.0987,3.1007,3.1012,3.1011,3.1023,3.102,3.0974,3.0933,3.1018,3.1016,3.0852,3.0847,3.0843,3.0761,0,0,0,0,0,0,3.1005,3.0998,3.097,3.0982,3.0978,3.0917,3.0986,3.0992,3.0983,3.099,3.0997,3.1001,3.1025,3.0977,3.0971,3.093,3.1014,3.0856,3.085,3.0845,3.0768,3.0755,3.0743,0,0,0,0,0,3.1007,3.0945,3.0968,3.0962,3.0943,3.0914,3.0912,3.0942,3.0979,3.0951,3.0965,3.1001,3.0938,3.0972,3.0965,3.0923,3.0858,3.0852,3.0845,3.0773,3.0757,3.0744,0,0,0,0,0,0,3.0925,3.0947,3.0972,3.0912,3.0911,3.0927,3.0892,3.0923,3.0911,3.0918,3.0955,3.0956,3.0905,3.091,3.0947,3.0854,3.0905,3.0897,3.0853,3.0838,3.0826,3.0826,3.1011,0,0,0,0,0,3.09,3.0876,3.0896,3.0841,3.0839,3.0866,3.0854,3.0878,3.0878,3.0877,3.0887,3.0885,3.0866,3.0852,3.0834,3.0769,3.0773,3.0737,3.0725,3.0715,3.0707,3.0677,3.0662,3.082,3.082,3.082,0,0,3.0848,3.0857,3.0839,3.0825,3.0826,3.0801,3.0864,3.0833,3.0815,3.0872,3.083,3.0838,3.0838,3.0783,3.0759,3.0785,3.0665,3.0706,3.0698,3.0696,3.0668,3.0653,3.064,3.0815,3.0816,3.0817,0,0,3.074,3.0743,3.07,3.0702,3.0705,3.0723,3.0713,3.0725,3.0732,3.0691,3.0735,3.0713,3.0678,3.0678,3.0673,3.057,3.0604,3.0563,3.0499,3.0469,3.0456,3.0446,3.0411,3.0398,3.0555,3.0555,3.0555,0,3.0674,3.0638,3.0673,3.0641,3.0634,3.0687,3.0644,3.0644,3.064,3.0635,3.0664,3.0624,3.0628,3.0575,3.0551,3.0544,3.0535,3.0562,3.0456,3.0445,3.0436,3.0403,3.039,3.055,3.0551,3.0551,3.0552,0,3.0558,3.0533,3.0497,3.0495,3.0485,3.0447,3.0477,3.0463,3.0488,3.0504,3.0463,3.047,3.0457,3.0447,3.0469,3.0398,3.0415,3.0449,3.0501,3.0415,3.0386,3.0373,3.0544,3.0545,3.0547,3.0548,0,0,3.0396,3.0418,3.0404,3.0406,3.0415,3.0396,3.0362,3.0351,3.0339,3.0335,3.0309,3.028,3.0313,3.0308,3.0332,3.0305,3.0227,3.0344,3.0344,3.0323,3.0152,3.0127,3.0112,3.0249,3.0247,3.0245,3.0153,0,3.0294,3.0238,3.0271,3.021,3.0188,3.024,3.021,3.0213,3.0228,3.0212,3.0228,3.0208,3.0252,3.025,3.0226,3.0241,3.0193,3.0248,3.0226,3.0225,3.0226,3.0096,3.0069,2.9981,3.0141,3.0139,3.0137,0,3.0166,3.0161,3.0099,3.0116,3.0108,3.0081,3.0076,3.0059,3.0065,3.0078,3.0074,3.0106,3.0075,3.0126,3.0085,3.0122,3.0115,3.0122,3.012,3.0119,3.0176,3.0094,2.9953,2.9941,3.0119,3.0121,3.0122,0,3.0058,3.0034,2.9995,2.9995,3.0013,2.9994,3.0,3.0008,3.0001,2.9996,2.9993,2.9983,2.9979,2.9971,3.0001,3.0035,2.9957,3.001,2.9968,2.9967,2.9949,2.995,2.9807,2.9942,2.9942,2.9943,2.9943,0,2.9941,2.9901,2.9948,2.9923,2.9881,2.992,2.9877,2.9889,2.9897,2.9877,2.992,2.99,2.994,2.9925,2.9947,2.9912,2.9908,2.9919,2.9926,2.9916,2.9915,2.9913,2.992,2.9939,2.994,2.9941,2.9941,0,2.9812,2.9841,2.9803,2.9825,2.9829,2.9798,2.9817,2.9796,2.9815,2.9789,2.9786,2.9815,2.98,2.9829,2.9816,2.9832,2.9783,2.9798,2.9781,2.9786,2.9744,2.9748,2.9595,2.9578,2.9722,2.972,2.9719,0,2.9736,2.9708,2.9728,2.9719,2.9724,2.9707,2.9701,2.9739,2.9731,2.9737,2.9716,2.9705,2.9698,2.9671,2.9691,2.9683,2.97,2.9647,2.9698,2.9691,2.9702,2.9704,2.9702,2.9636,2.9634,2.9633,2.9632,0,2.9599,2.9616,2.9606,2.9602,2.9595,2.9593,2.9594,2.9584,2.9624,2.9613,2.9599,2.9594,2.9583,2.9572,2.9569,2.9577,2.9611,2.9615,2.9606,2.9596,2.9589,2.9595,2.9754,2.9619,2.962,2.9621,2.9622,2.9622,2.9496,2.9475,2.9487,2.9476,2.9481,2.9482,2.9465,2.9484,2.9473,2.9469,2.9491,2.9473,2.9483,2.9483,2.9487,2.9474,2.9498,2.9483,2.9479,2.9475,2.947,2.959,2.9473,2.9474,2.9474,2.9474,2.9475,0,2.9364,2.9375,2.9364,2.9367,2.9358,2.9393,2.9398,2.9388,2.9372,2.9379,2.9372,2.9358,2.9348,2.9369,2.9364,2.9349,2.9365,2.9347,2.9349,2.9351,2.9447,2.9458,2.9334,2.9334,2.9334,2.9334,2.9334,2.9334,2.9294,2.9261,2.928,2.9251,2.9262,2.9246,2.9246,2.9248,2.9254,2.9237,2.923,2.9245,2.9258,2.9254,2.9248,2.9254,2.9251,2.9227,2.9239,2.933,2.9343,2.9356,2.9366,2.9226,2.9226,2.9144,2.9143,2.9143]}]]